Satellite: NO-44
Catalog number: 26931
Epoch time:      06291.84311134
Element set:     427
Inclination:      067.0527 deg
RA of node:       049.1634 deg
Eccentricity:    0.0004888
Arg of perigee:   257.7537 deg
Mean anomaly:     102.3021 deg
Mean motion:   14.29456913 rev/day
Decay rate:       1.82e-06 rev/day^2
Epoch rev:           26360
Checksum:              294

Satellite: SO-50
Catalog number: 27607
Epoch time:      06291.54358461
Element set:     148
Inclination:      064.5574 deg
RA of node:       098.6329 deg
Eccentricity:    0.0034965
Arg of perigee:   094.3536 deg
Mean anomaly:     266.1549 deg
Mean motion:   14.71182408 rev/day
Decay rate:       -4.8e-07 rev/day^2
Epoch rev:           20557
Checksum:              331

Satellite: CO-55
Catalog number: 27844
Epoch time:      06291.57294470
Element set:    0875
Inclination:      098.7225 deg
RA of node:       298.1741 deg
Eccentricity:    0.0010669
Arg of perigee:   069.0902 deg
Mean anomaly:     291.1422 deg
Mean motion:   14.20463202 rev/day
Decay rate:        2.8e-07 rev/day^2
Epoch rev:           17117
Checksum:              307

Satellite: CO-57
Catalog number: 27848
Epoch time:      06291.56324035
Element set:    0839
Inclination:      098.7209 deg
RA of node:       297.4552 deg
Eccentricity:    0.0010586
Arg of perigee:   070.9576 deg
Mean anomaly:     289.2768 deg
Mean motion:   14.20289154 rev/day
Decay rate:        3.6e-07 rev/day^2
Epoch rev:           17115
Checksum:              343

Satellite: AO-51
Catalog number: 28375
Epoch time:      06292.68699807
Element set:     655
Inclination:      098.1495 deg
RA of node:       338.9542 deg
Eccentricity:    0.0083293
Arg of perigee:   190.5311 deg
Mean anomaly:     169.4136 deg
Mean motion:   14.40537360 rev/day
Decay rate:        2.5e-07 rev/day^2
Epoch rev:           12108
Checksum:              327

Satellite: CO-56
Catalog number: 28941
Epoch time:      06291.89250795
Element set:     229
Inclination:      098.1686 deg
RA of node:       322.6007 deg
Eccentricity:    0.0265571
Arg of perigee:   041.1013 deg
Mean anomaly:     320.9922 deg
Mean motion:   15.29157133 rev/day
Decay rate:     1.7967e-04 rev/day^2
Epoch rev:            3642
Checksum:              322

/EX
SB KEPS @ AMSAT  $ORB06292.W
Orbital Elements  06292.WEATHER

HR AMSAT ORBITAL ELEMENTS FOR WEATHER SATELLITES
FROM WA5QGD FORT WORTH,TX October 19, 2006
Send SUBSCRIBE KEPS/UNSUBSCRIBE KEPS to majordomo@amsat.org only
BID: ORB06292.W
TO ALL RADIO AMATEURS BT

Satellite: NOAA-10
Catalog number: 16969
Epoch time:      06292.43530807
Element set:     388
Inclination:      098.7595 deg
RA of node:       304.3327 deg
Eccentricity:    0.0012739
Arg of perigee:   145.8610 deg
Mean anomaly:     214.3398 deg
Mean motion:   14.27305982 rev/day
Decay rate:       -2.6e-07 rev/day^2
Epoch rev:            4488
Checksum:              327

Satellite: NOAA-11
Catalog number: 19531
Epoch time:      06292.40362551
Element set:     336
Inclination:      098.8238 deg
RA of node:       019.4561 deg
Eccentricity:    0.0011565
Arg of perigee:   000.1135 deg
Mean anomaly:     000.0047 deg
Mean motion:   14.14820114 rev/day
Decay rate:      -1.87e-06 rev/day^2
Epoch rev:           93210
Checksum:              249

Satellite: NOAA-12
Catalog number: 21263
Epoch time:      06292.41297974
Element set:     830
Inclination:      098.7416 deg
RA of node:       285.2346 deg
Eccentricity:    0.0013613
Arg of perigee:   086.7429 deg
Mean anomaly:     273.5314 deg
Mean motion:   14.25510538 rev/day
Decay rate:       -3.4e-07 rev/day^2
Epoch rev:           80194
Checksum:              305

Satellite: MET-3/5
Catalog number: 21655
Epoch time:      06292.80446712
Element set:     173
Inclination:      082.5558 deg
RA of node:       172.7669 deg
Eccentricity:    0.0014180
Arg of perigee:   087.2119 deg
Mean anomaly:     273.0625 deg
Mean motion:   13.17007661 rev/day
Decay rate:        5.1e-07 rev/day^2
Epoch rev:           72976
Checksum:              307

Satellite: MET-2/21
Catalog number: 22782
Epoch time:      06292.84875793
Element set:     645
Inclination:      082.5473 deg
RA of node:       232.5450 deg
Eccentricity:    0.0021830
Arg of perigee:   186.4805 deg
Mean anomaly:     173.6073 deg
Mean motion:   13.83609700 rev/day
Decay rate:       -6.0e-08 rev/day^2
Epoch rev:           66328
Checksum:              315

Satellite: OKEAN-4
Catalog number: 23317
Epoch time:      06291.74401118
Element set:      80
Inclination:      082.5403 deg
RA of node:       161.7729 deg
Eccentricity:    0.0021886
Arg of perigee:   332.1542 deg
Mean anomaly:     027.8501 deg
Mean motion:   14.82409793 rev/day
Decay rate:        5.0e-07 rev/day^2
Epoch rev:           64828
Checksum:              286

Satellite: NOAA-14
Catalog number: 23455
Epoch time:      06292.22968857
Element set:     329
Inclination:      099.0249 deg
RA of node:       351.7406 deg
Eccentricity:    0.0009914
Arg of perigee:   063.7666 deg
Mean anomaly:     296.4554 deg
Mean motion:   14.13671160 rev/day
Decay rate:       1.67e-06 rev/day^2
Epoch rev:           60859
Checksum:              337

Satellite: SICH-1
Catalog number: 23657
Epoch time:      06292.70012173
Element set:     883
Inclination:      082.5261 deg
RA of node:       301.7775 deg
Eccentricity:    0.0022882
Arg of perigee:   317.1242 deg
Mean anomaly:     042.8178 deg
Mean motion:   14.81401259 rev/day
Decay rate:       2.73e-06 rev/day^2
Epoch rev:           60042
Checksum:              278

